EHI
0 0 0 0 0 0 0 0 0 0 0 1 4 8 15 20 23 29 39 45 47 45 42 39 41 45 42 38 38 38 36 33 29 26 26 25 23 22 23 23 21 18 15 14
0 0 0 0 0 0 0 0 0 0 1 3 6 10 17 22 24 29 39 45 46 44 42 41 43 45 43 40 41 40 37 33 30 27 26 25 23 22 23 23 22 19 16 15
0 0 0 0 0 0 0 1 1 1 2 4 8 12 17 22 26 30 38 43 45 44 44 46 45 44 44 43 42 40 37 34 30 28 26 24 23 23 23 22 21 19 16 15
0 0 0 0 0 0 0 1 2 2 3 4 7 9 14 21 27 31 36 41 44 45 47 49 46 43 44 44 41 38 36 33 29 27 25 23 22 23 23 22 20 18 16 15
0 0 0 0 0 0 0 1 1 1 2 5 5 5 9 19 27 32 35 40 44 46 48 49 46 43 43 44 41 36 33 30 27 26 25 23 22 22 22 22 21 19 16 16
0 0 0 0 0 0 0 0 0 1 3 5 5 6 12 21 29 33 36 41 46 48 51 52 49 46 46 45 41 36 31 28 25 23 23 23 23 21 21 22 22 20 18 17
0 0 0 0 0 0 1 2 2 3 3 4 7 14 22 29 34 38 40 45 49 50 54 55 51 49 50 48 43 38 33 29 25 22 21 22 22 21 21 21 20 20 18 18
0 0 0 1 2 3 4 6 6 5 4 5 11 20 28 34 40 43 44 47 47 49 53 55 52 50 51 49 42 37 33 30 27 23 21 22 22 21 21 21 20 18 16 15
1 2 3 5 7 9 10 10 9 7 7 11 17 24 30 36 41 44 44 44 42 43 49 52 51 50 49 46 38 32 31 31 29 25 23 23 23 21 21 20 18 16 12 10
3 6 9 10 11 12 13 13 12 8 9 14 21 26 30 36 41 44 42 41 40 40 45 49 49 47 46 41 33 28 29 30 29 26 23 23 22 20 19 18 16 13 10 8
6 10 12 12 12 13 15 16 16 13 13 19 26 30 32 37 43 45 43 41 40 41 44 48 48 45 40 35 29 27 28 29 27 24 23 21 19 17 16 14 12 10 9 8
7 11 13 13 13 16 19 21 22 22 23 28 34 36 36 40 44 45 42 39 38 39 44 48 47 42 35 29 26 25 26 26 24 22 21 19 16 13 11 9 7 5 5 6
11 13 16 18 19 21 25 28 29 31 34 39 41 41 40 42 42 39 36 36 36 37 40 43 43 39 33 26 23 23 22 19 18 18 18 17 14 12 10 7 5 3 2 2
13 16 21 24 24 27 30 33 35 39 41 43 42 39 39 40 38 35 34 35 34 34 35 37 38 36 31 24 20 18 15 12 12 14 16 15 13 11 9 9 7 5 2 0
13 15 20 22 24 26 28 30 34 38 39 38 36 34 35 36 36 36 36 36 33 31 32 34 36 35 29 22 17 15 12 10 11 14 16 15 11 9 9 10 9 8 4 2
13 13 14 16 20 22 21 21 24 26 27 28 29 30 30 32 34 35 34 33 30 29 31 33 33 32 27 22 19 17 14 11 11 14 16 14 12 10 10 10 10 9 6 4
13 12 11 12 16 18 16 15 16 17 18 20 24 26 26 27 29 30 29 29 28 29 30 31 31 27 24 22 20 17 15 12 11 13 15 14 13 11 10 10 10 9 6 4
10 10 9 9 12 13 13 13 15 16 17 19 22 23 22 21 23 25 24 24 25 27 29 29 27 24 22 21 19 16 14 12 11 12 13 13 12 10 9 9 9 8 5 4
10 9 8 8 8 9 10 13 15 17 18 19 20 21 19 18 19 20 19 19 22 25 27 25 22 21 20 17 15 14 12 11 11 11 12 12 11 9 8 7 7 6 4 3
11 10 9 8 7 7 8 10 13 16 18 18 18 18 17 17 17 17 15 16 19 23 23 20 17 18 18 13 10 11 11 9 9 10 10 10 9 8 7 6 5 4 3 3
12 12 10 8 8 7 7 8 10 13 15 17 17 16 16 16 16 16 15 15 17 19 17 14 14 16 15 11 8 10 10 10 10 10 10 9 8 6 5 4 4 3 3 3
14 12 10 8 8 8 8 8 10 11 13 15 16 16 17 16 15 15 15 15 15 14 11 10 10 10 9 8 8 10 11 12 12 11 10 7 6 4 2 2 3 3 3 3
10 9 7 6 7 8 10 10 10 11 13 13 15 16 16 16 14 12 11 11 10 8 7 6 5 4 3 5 7 9 11 12 12 11 7 4 4 3 2 2 3 3 3 3
5 4 3 3 4 7 10 11 11 12 13 14 14 15 14 12 10 9 8 7 5 4 3 2 2 1 1 3 6 8 9 10 9 8 5 2 2 3 3 4 4 4 4 4
2 1 1 1 2 5 8 10 10 11 13 13 13 13 11 8 6 8 9 7 3 2 2 2 1 0 1 4 5 6 7 8 7 5 4 3 3 4 4 5 6 6 5 5
1 1 1 1 2 4 6 8 8 8 10 10 10 10 8 6 6 8 9 7 3 2 3 4 2 1 2 3 3 4 5 6 5 4 3 4 5 5 5 5 6 6 5 5
2 2 2 2 3 4 6 6 6 6 6 6 6 6 7 6 7 7 6 4 2 2 4 5 3 1 1 1 1 2 4 5 5 4 3 4 5 5 4 4 4 4 4 4
Wind_Speed
10 8 11 14 15 15 15 13 12 10 10 6 4 4 5 6 8 8 8 8 8 8 8 8 8 8 8 8 8 8 8 7 7 6 6 5 5 4 4 3 3 2 2 2
11 10 12 14 15 16 16 14 13 11 10 3 3 4 5 6 7 8 8 8 8 8 8 8 8 8 8 9 9 9 8 8 7 7 7 6 6 5 4 4 3 3 2 2
12 12 12 16 16 16 15 14 14 13 9 5 5 5 6 6 7 7 8 8 8 9 8 8 8 8 9 9 9 9 9 8 8 7 7 6 6 6 5 4 4 3 3 2
10 10 16 10 9 12 13 13 13 10 6 6 5 5 5 5 6 6 7 8 8 8 8 8 8 8 8 9 10 9 9 8 8 8 7 6 6 6 5 4 3 3 3 2
10 13 13 7 8 10 12 12 9 9 7 5 4 5 6 4 4 5 7 7 7 7 8 8 8 9 9 9 10 10 9 8 8 8 8 7 6 6 5 4 4 3 3 3
11 14 14 8 7 6 9 11 6 6 6 6 7 8 5 5 5 5 6 6 7 7 7 8 8 9 10 10 10 10 9 9 8 8 8 7 7 6 5 4 4 4 3 3
13 13 9 4 7 8 12 6 4 6 6 7 7 4 1 4 5 6 6 7 7 7 6 7 8 9 9 9 9 8 9 9 8 8 8 7 7 6 5 5 4 4 4 3
12 13 9 6 8 8 2 0 3 4 5 6 4 3 3 4 5 6 7 7 7 6 6 6 7 9 9 9 8 8 8 8 8 8 7 7 7 6 6 6 6 5 4 4
7 5 2 4 3 1 1 3 3 4 4 5 5 5 4 5 5 6 7 7 6 7 7 6 6 7 8 7 8 8 8 8 8 8 7 7 8 8 7 6 5 5 5 5
4 4 4 3 2 2 3 4 4 4 4 5 5 5 5 5 5 5 6 6 6 7 7 6 6 6 6 7 8 8 8 8 8 8 8 7 6 6 6 6 5 5 5 4
6 4 4 4 2 2 2 3 3 3 4 4 5 5 5 5 5 5 5 6 6 6 6 6 6 6 6 7 7 8 8 7 7 7 7 7 6 3 4 3 2 3 4 4
5 3 4 3 3 3 3 3 2 3 3 3 4 4 4 4 4 5 5 6 6 6 6 6 6 6 7 7 7 8 8 8 7 7 6 6 6 5 2 1 3 2 1 2
3 3 4 3 3 3 3 2 2 2 3 3 3 4 4 4 5 5 5 6 6 6 5 6 6 6 6 7 7 8 7 7 6 6 6 6 6 6 6 4 3 3 3 3
2 3 3 3 3 2 2 2 2 2 2 2 3 3 4 4 5 5 5 5 6 5 5 5 6 6 6 7 7 7 7 7 6 6 6 6 6 6 6 6 6 5 6 7
3 3 3 3 3 3 3 3 3 3 3 3 3 3 4 4 5 5 4 4 5 5 5 5 5 5 5 6 7 7 6 6 5 5 5 6 6 6 6 6 6 6 5 6
3 3 3 3 3 3 3 3 3 3 3 3 2 2 2 3 3 4 4 4 5 6 5 5 5 5 5 6 7 6 5 5 6 6 6 6 6 6 6 6 6 5 5 5
4 4 4 3 4 4 3 3 2 2 2 2 2 2 2 3 4 4 4 4 4 4 5 5 5 5 6 6 6 5 5 6 8 7 6 6 6 6 5 5 5 5 4 4
5 5 5 4 3 2 2 2 3 3 3 2 2 2 3 3 4 4 3 3 3 4 4 4 5 6 7 7 6 5 5 6 7 6 5 5 5 5 5 5 5 5 4 5
4 4 4 4 3 2 3 2 2 2 2 2 3 2 2 3 3 3 3 4 5 5 5 4 5 7 7 7 6 5 5 6 5 5 5 5 6 5 5 5 4 4 4 4
3 3 3 3 3 3 2 2 2 2 2 2 3 3 3 3 3 4 4 5 4 3 3 4 6 5 5 6 6 5 6 6 6 5 5 5 5 5 5 5 4 4 4 4
1 1 2 2 2 2 2 2 2 2 2 2 3 3 3 3 3 3 4 4 3 3 4 5 5 5 5 4 6 5 5 5 5 5 5 5 5 5 5 4 4 4 4 4
1 0 1 1 1 1 1 2 2 2 2 2 3 3 3 3 3 3 4 3 2 3 4 5 5 4 4 5 5 5 5 5 5 4 4 4 4 4 4 4 4 4 3 3
2 1 1 0 0 0 0 1 1 2 2 2 2 3 3 3 3 3 3 2 2 4 4 3 3 5 6 6 4 4 4 4 4 4 4 4 3 3 3 3 3 3 3 3
2 2 1 1 1 1 1 0 0 0 0 1 2 2 3 3 2 2 1 2 3 3 3 3 6 6 7 5 4 4 4 3 3 3 3 3 3 3 3 3 3 3 3 4
2 1 1 1 0 0 1 1 0 0 0 1 1 2 2 2 2 1 1 2 3 3 3 4 7 7 6 4 4 3 3 3 2 2 3 3 3 3 3 2 2 3 2 3
2 2 2 2 2 1 0 0 0 0 0 1 1 1 1 1 1 1 2 3 3 3 2 3 5 5 4 4 4 3 3 3 3 3 2 2 3 3 2 2 3 2 2 2
1 1 1 1 1 1 1 1 1 1 0 0 0 1 1 1 0 1 1 2 2 2 2 2 3 3 3 3 3 3 2 2 2 2 2 2 2 2 3 3 3 2 2 2
Wind_Direction
240 224 206 210 209 210 223 235 243 237 238 216 190 190 180 174 171 164 161 161 161 161 158 160 160 163 166 164 163 162 161 158 154 151 147 146 145 143 141 142 136 127 116 104
221 220 218 221 217 216 223 230 239 242 240 216 188 185 176 175 175 172 167 165 164 163 161 162 162 162 164 165 163 163 164 160 154 154 150 151 152 151 148 144 134 126 116 108
218 209 218 224 219 219 221 227 232 234 233 191 192 195 192 186 185 179 170 164 166 168 166 164 164 165 165 164 162 164 164 160 160 158 155 157 157 153 149 147 143 136 128 120
219 203 225 227 215 220 224 227 231 238 227 213 222 211 204 193 188 182 169 164 165 168 166 165 163 163 164 160 163 165 165 163 162 162 158 159 159 154 153 154 153 147 140 132
221 219 224 207 203 211 217 221 220 229 225 221 215 204 195 181 183 176 168 162 162 165 164 162 164 162 162 162 165 167 168 167 167 168 162 165 164 159 158 160 157 155 142 133
220 228 226 203 176 202 219 218 202 218 219 216 214 227 197 161 169 162 156 153 155 157 158 160 163 164 166 167 169 172 171 169 167 169 168 168 165 162 160 163 162 157 138 133
223 227 229 179 164 187 218 211 180 215 217 215 222 262 119 152 161 160 157 155 152 151 152 157 163 170 174 173 175 173 168 166 168 170 170 168 164 164 168 171 163 153 144 144
220 227 216 156 182 207 243 55 206 220 218 218 213 202 180 159 157 157 157 156 152 149 147 151 165 172 175 176 172 168 168 169 171 171 171 165 166 169 175 176 169 164 163 168
220 226 100 165 200 179 287 247 238 235 229 212 206 200 184 169 160 159 159 159 157 152 150 154 169 176 174 168 165 166 169 172 173 173 170 170 174 174 181 189 190 179 179 180
218 201 193 189 211 231 251 257 255 238 218 207 203 193 183 173 167 167 167 165 163 161 159 162 170 172 168 164 167 170 174 175 173 175 174 173 181 185 192 190 192 189 188 186
216 210 207 202 228 252 263 256 238 222 219 212 196 192 187 180 176 175 172 168 168 169 166 164 167 168 163 161 168 174 173 176 179 181 176 175 182 185 201 184 195 210 198 192
220 207 234 227 244 251 239 225 217 205 203 206 194 187 184 177 175 173 170 167 171 171 166 163 165 168 168 167 173 179 180 181 184 184 178 181 177 171 92 123 131 144 336 296
268 275 272 261 254 248 238 218 202 194 189 187 180 175 176 172 171 174 175 174 177 178 173 167 168 170 170 172 178 187 187 182 184 185 179 185 186 185 178 166 168 189 202 217
245 244 239 245 246 237 218 193 176 159 155 162 165 167 166 170 171 178 181 181 181 178 175 172 175 175 173 174 182 190 189 179 186 183 184 187 190 195 192 186 184 187 192 194
235 254 254 249 230 200 178 169 162 158 153 151 153 161 168 174 174 177 182 180 178 182 182 177 178 176 174 177 181 187 187 179 183 182 188 189 192 200 200 200 196 185 177 169
230 227 229 226 210 188 181 181 180 180 174 160 155 164 178 185 176 176 182 184 190 192 186 184 186 179 180 183 182 184 185 174 185 191 192 192 196 202 202 202 205 200 195 179
215 217 224 228 219 205 202 204 203 203 201 189 176 171 180 190 185 181 190 197 207 203 193 190 188 182 186 188 191 192 186 177 188 199 197 197 199 205 206 208 210 207 200 169
242 235 235 238 241 229 218 213 211 205 201 206 200 193 193 201 200 193 186 189 206 206 202 192 183 184 189 189 195 196 192 192 196 199 197 199 203 206 208 208 209 211 197 164
236 238 241 238 240 241 231 218 207 206 202 203 204 211 215 216 213 207 193 198 206 207 201 190 182 193 190 187 195 200 199 195 196 200 202 189 199 205 204 206 206 202 197 188
232 232 235 240 237 235 229 206 203 207 211 203 198 205 212 213 211 206 207 219 226 222 184 177 185 195 191 188 202 206 199 198 200 197 200 199 197 199 202 206 207 204 201 203
226 214 203 214 217 219 215 209 208 202 209 204 198 205 216 220 219 219 221 225 205 187 182 177 196 196 192 183 198 209 200 199 199 200 202 199 197 198 202 204 206 205 204 205
58 116 168 175 162 182 202 212 209 200 199 201 204 209 212 218 223 230 236 244 200 177 198 197 196 178 175 185 202 207 200 195 193 194 198 199 197 198 200 200 201 199 196 199
4 348 341 43 111 189 217 205 205 203 194 210 215 216 228 246 247 234 229 205 194 182 208 202 154 148 168 195 197 193 192 190 190 190 192 196 196 195 194 194 194 193 191 193
356 348 7 34 71 117 108 81 5 188 179 240 223 221 236 240 240 242 230 158 170 188 205 155 153 163 178 189 183 180 178 180 185 185 186 185 184 184 186 184 182 184 188 190
5 16 43 59 91 65 60 60 75 118 235 248 230 221 241 242 237 223 205 174 158 182 184 159 163 173 181 180 175 171 166 162 169 173 175 179 177 170 174 177 178 181 187 186
2 10 20 3 10 10 5 348 227 196 242 258 267 244 255 244 224 215 194 167 158 159 167 161 161 169 174 166 160 156 154 153 159 165 172 176 170 161 158 157 163 179 181 178
352 27 40 33 36 23 10 360 10 21 18 15 341 337 347 353 359 132 138 129 130 137 129 127 135 143 144 142 141 141 145 146 144 145 146 151 153 149 148 157 169 171 169 160